AURA

Last updated on Sat Apr 13 2024 01:02:24 GMT+0100 (British Summer Time)

1 28376U 04026A 24103.58054006 .00001311 00000+0 29300-3 0 9998 2 28376 98.2460 48.9015 0000790 64.7582 295.3699 14.58366732 50117
UTC large
Height (km)
Speed (km/s)
/
Latitude / Longitude
Inclination (degrees)
Orbital Period (minutes)
Azimuth
Elevation
Range (km)
Doppler Factor

Next 0 passes for location: London (51.5072 / 0.1276)

Sorry there are no passes over London.